Wind_Speed
10 9 8 9 9 8 9 9 9 8 8 10 11 13 14 14 14 14 14 14 13 14 15 15 14 16 19 21 22 24 24 23 24 26 27 28 27 27 27 27 26 24
10 10 9 9 9 8 8 8 8 8 8 9 10 12 14 14 15 15 14 14 14 15 15 14 14 15 19 20 21 23 24 24 24 26 28 28 27 28 28 28 27 25
9 9 9 9 8 7 7 7 7 8 8 8 9 10 12 14 15 15 13 13 13 13 14 13 14 16 18 20 22 23 24 25 25 27 29 29 28 28 29 29 28 26
10 10 9 9 8 7 7 7 7 8 8 9 9 9 10 12 14 14 12 12 13 13 12 12 13 15 17 19 22 23 25 25 26 28 29 29 29 28 28 29 29 28
10 10 10 9 8 7 8 8 9 9 9 9 9 10 10 11 12 13 12 12 13 13 13 12 13 14 16 19 21 24 25 26 27 29 29 29 29 28 28 29 30 29
11 10 11 11 10 9 8 8 9 10 10 9 9 9 9 9 9 11 12 12 13 13 14 13 13 15 17 18 21 23 26 28 28 30 30 29 29 29 29 29 29 29
12 10 10 10 9 9 9 8 8 9 9 9 9 9 8 8 6 6 8 10 11 12 13 13 13 14 16 18 21 23 25 27 29 30 31 30 30 29 29 29 30 31
14 12 12 12 11 10 8 7 7 8 9 9 8 8 7 7 6 5 5 6 7 9 11 12 13 14 14 16 19 22 24 26 28 30 31 31 31 30 29 30 32 31
16 16 17 18 19 18 15 10 7 7 7 8 7 7 7 7 7 7 6 5 5 6 8 10 12 13 13 14 16 19 22 25 27 29 31 32 32 31 31 33 32 31
18 17 18 20 22 23 23 20 14 10 8 8 8 8 8 8 8 8 8 8 7 7 8 10 11 12 12 13 14 16 19 23 27 29 31 32 33 33 33 33 32 31
19 16 18 22 22 22 23 24 22 18 12 10 11 11 11 10 9 9 9 10 10 10 9 10 11 12 12 13 13 14 16 20 25 28 30 31 32 33 34 33 32 31
23 18 19 23 24 23 22 22 22 20 16 13 11 12 13 12 11 11 11 12 13 13 12 11 12 14 14 13 14 14 16 18 22 26 30 31 31 32 33 34 34 31
27 25 23 24 24 25 23 21 21 20 18 16 13 13 14 14 13 13 13 12 13 13 13 13 13 14 14 14 15 16 16 18 21 24 28 30 31 32 32 34 34 33
28 28 28 28 27 27 25 23 22 20 19 18 15 15 16 16 16 16 15 14 13 12 12 12 12 13 13 14 15 16 17 19 20 22 25 28 30 32 32 33 34 34
30 30 30 30 30 29 28 25 23 22 21 20 18 17 17 18 19 18 16 15 13 11 10 10 10 11 12 13 14 16 18 19 21 21 23 26 29 31 33 34 34 34
32 31 31 32 31 31 30 28 26 25 23 22 21 21 20 20 20 19 18 16 13 11 11 11 11 12 13 14 15 16 17 18 20 21 22 24 27 30 33 34 34 34
32 32 32 32 33 32 31 30 29 28 26 25 24 24 23 22 21 19 18 17 15 12 13 12 12 12 13 14 16 17 18 19 19 20 20 22 24 27 31 34 35 35
30 31 31 31 32 33 32 31 31 30 29 28 27 26 25 24 23 20 17 16 17 16 16 14 13 13 14 15 15 16 19 21 21 21 21 20 22 25 28 31 34 36
28 29 29 29 30 31 31 31 31 31 30 30 30 29 28 26 24 20 17 16 17 17 17 16 15 14 15 15 16 17 18 20 21 23 23 22 22 23 26 28 30 33
26 27 28 27 27 28 29 29 30 30 30 30 30 31 30 28 25 22 19 18 19 18 17 16 16 16 16 16 16 17 18 19 19 21 23 24 24 23 24 25 26 29
24 25 26 26 26 25 26 27 29 29 30 30 29 30 30 29 27 24 21 20 21 21 19 17 16 17 18 18 17 18 18 19 18 19 20 22 24 25 24 23 23 26
22 23 24 24 25 24 24 25 26 28 29 30 29 28 28 27 27 26 24 22 22 23 22 19 18 19 20 20 20 19 20 19 18 19 19 20 21 24 25 25 25 27
22 22 23 24 24 24 24 24 25 26 27 29 29 28 26 24 24 25 25 24 24 24 24 22 20 21 22 22 22 21 21 21 20 20 20 19 19 20 24 26 28 29
21 22 23 24 25 25 25 25 25 25 26 27 29 29 27 25 24 25 25 25 25 26 26 24 22 22 24 25 25 24 22 22 22 21 21 20 19 18 21 25 27 28
21 22 24 24 25 26 26 26 26 26 26 26 28 29 29 27 26 27 28 28 28 27 27 26 24 23 25 26 27 27 25 24 24 24 23 21 20 19 21 24 25 26
22 22 23 24 25 26 26 27 27 26 26 26 26 27 28 28 27 27 27 27 27 27 28 28 26 24 25 27 28 28 28 28 27 26 25 23 22 21 22 23 25 25
Wind_Direction
341 339 321 305 298 291 286 288 294 299 302 298 289 281 274 272 271 272 275 273 273 276 263 248 243 231 221 219 218 216 213 208 206 208 210 211 212 214 218 220 218 214
352 349 345 337 326 314 305 301 301 301 305 307 301 291 280 273 268 266 269 269 272 279 268 247 240 236 228 224 221 218 215 212 211 211 212 213 214 215 218 221 221 217
357 353 352 350 344 333 321 312 308 305 307 313 314 309 295 280 272 267 264 262 262 268 266 250 236 233 230 227 225 222 219 217 215 214 215 214 215 217 218 221 222 219
358 355 353 352 347 339 327 318 319 316 316 320 320 321 314 293 277 268 262 259 256 256 255 249 241 237 233 229 227 225 223 222 219 217 217 216 216 216 218 221 221 220
349 350 348 349 343 335 328 325 327 326 327 329 324 322 325 312 286 268 262 261 261 260 256 250 245 243 240 233 229 227 225 225 225 223 219 218 219 218 218 220 221 220
330 335 335 336 336 334 331 327 327 327 327 332 331 324 326 327 305 276 266 264 264 262 257 252 247 245 244 239 234 230 226 225 226 226 223 220 221 221 219 220 221 220
303 305 307 311 316 322 326 329 330 328 324 325 331 327 320 321 322 299 277 266 261 255 251 251 250 248 247 243 238 233 229 227 226 227 226 223 223 223 221 222 222 220
289 297 307 311 311 309 310 318 324 324 322 321 322 324 319 310 308 309 296 274 259 248 246 249 253 256 257 253 246 238 233 229 226 226 226 224 225 224 223 224 224 221
306 318 323 325 324 319 312 306 298 296 303 311 315 314 313 306 296 288 284 279 265 251 249 250 253 258 264 266 261 251 241 235 230 229 227 226 226 226 226 226 224 222
317 320 321 324 325 323 317 310 304 298 295 303 310 309 304 302 295 280 270 268 266 260 257 254 253 253 256 261 264 260 252 243 237 234 232 230 229 228 230 230 226 223
315 316 319 320 319 318 313 309 311 317 318 313 310 307 302 299 296 286 271 262 259 258 257 256 254 250 247 247 250 253 252 247 242 240 238 236 234 233 234 236 234 229
312 315 316 313 312 312 310 310 312 313 311 306 304 301 297 294 293 289 277 264 257 255 254 253 253 252 248 244 243 243 245 245 243 242 241 241 239 237 238 241 241 237
307 310 309 307 307 308 308 309 309 305 301 300 299 295 291 290 289 286 280 269 257 251 249 248 251 256 258 254 249 246 245 245 244 242 241 242 241 240 240 241 243 240
300 301 301 300 301 302 303 303 301 298 298 298 296 291 287 284 281 279 279 276 269 260 253 252 256 263 267 265 261 259 257 255 253 249 245 244 243 243 240 238 238 239
292 293 294 294 295 296 297 297 295 293 292 291 289 287 285 281 279 278 278 282 289 287 278 275 277 276 272 265 261 262 263 262 261 260 258 252 248 245 242 238 236 236
284 285 287 288 288 289 290 290 290 289 288 287 286 284 283 280 278 277 277 281 289 290 281 279 281 278 271 261 253 251 254 258 259 262 266 264 257 251 247 243 240 237
280 280 282 282 282 283 284 285 285 284 284 284 283 283 282 280 278 280 282 282 279 272 268 270 274 273 268 262 256 249 246 246 249 254 263 269 267 261 255 250 247 244
280 279 279 280 280 279 279 280 280 280 280 279 280 280 279 280 281 284 286 283 276 267 264 266 271 271 267 265 260 252 245 242 240 244 252 260 265 267 263 258 252 248
285 283 281 281 281 280 280 279 278 278 277 276 276 276 277 278 281 282 282 277 272 267 262 260 262 264 264 262 257 253 251 247 242 240 242 245 252 259 263 262 259 255
287 286 285 285 284 283 282 280 279 277 277 276 275 274 275 277 278 278 276 272 269 267 263 260 260 260 258 255 251 251 252 252 249 245 241 239 241 247 254 258 259 259
288 287 287 287 287 286 284 282 280 279 277 276 275 275 275 277 277 276 272 269 268 268 265 261 258 257 257 256 254 251 250 250 252 250 248 244 241 241 244 248 250 252
289 287 287 288 289 290 288 285 282 281 279 278 277 277 277 278 279 277 272 266 264 265 264 261 258 257 258 258 257 254 250 248 250 252 253 252 248 242 239 240 242 244
289 287 286 287 290 292 292 290 286 283 282 281 280 279 278 276 277 277 274 267 261 261 262 260 257 256 257 257 256 255 252 251 253 255 255 255 254 248 241 238 239 242
289 287 286 286 289 292 294 294 291 288 285 283 283 282 280 275 271 272 274 271 264 261 260 259 256 253 254 255 255 255 254 253 254 257 258 256 255 252 246 243 243 244
291 288 287 287 288 290 293 295 294 292 289 286 284 284 283 280 275 271 272 272 269 264 261 261 258 254 253 254 255 254 254 254 255 257 259 256 253 252 250 248 247 246
295 292 289 287 287 288 290 292 293 291 289 287 285 284 283 283 281 278 276 274 272 268 264 263 260 256 254 255 255 255 254 254 254 256 256 254 249 249 250 250 248 245
Height
3179 3179 3178 3177 3176 3175 3175 3174 3174 3173 3173 3172 3171 3170 3169 3169 3168 3168 3168 3169 3169 3168 3167 3166 3166 3167 3168 3169 3170 3172 3173 3172 3173 3175 3176 3178 3180 3181 3183 3185 3187 3189
3180 3178 3177 3176 3175 3175 3174 3174 3173 3173 3172 3171 3171 3169 3168 3167 3166 3166 3167 3168 3167 3167 3166 3166 3167 3167 3167 3168 3169 3170 3171 3171 3172 3173 3175 3176 3178 3179 3181 3183 3185 3187
3179 3177 3176 3175 3174 3174 3173 3173 3172 3172 3171 3170 3170 3169 3167 3166 3164 3164 3165 3166 3166 3165 3166 3166 3166 3166 3166 3166 3167 3168 3169 3170 3171 3172 3173 3174 3175 3177 3178 3181 3183 3185
3178 3176 3175 3174 3173 3172 3171 3171 3170 3170 3170 3169 3168 3167 3166 3164 3162 3162 3163 3164 3164 3164 3164 3164 3164 3164 3164 3165 3165 3167 3168 3169 3169 3169 3171 3172 3173 3174 3176 3178 3180 3182
3177 3175 3173 3172 3170 3170 3169 3169 3168 3168 3167 3167 3166 3166 3165 3163 3161 3160 3161 3161 3161 3162 3162 3162 3161 3162 3162 3163 3164 3165 3165 3166 3167 3168 3169 3171 3172 3173 3174 3175 3177 3180
3175 3173 3171 3169 3168 3167 3167 3166 3166 3165 3165 3165 3164 3164 3163 3161 3160 3159 3159 3159 3159 3159 3160 3160 3160 3160 3160 3161 3162 3162 3163 3164 3164 3165 3167 3168 3169 3171 3172 3172 3174 3177
3171 3168 3166 3165 3164 3163 3163 3164 3163 3163 3163 3162 3162 3162 3161 3160 3159 3158 3157 3157 3157 3157 3158 3158 3159 3159 3159 3159 3159 3160 3160 3161 3161 3163 3164 3166 3167 3168 3169 3170 3171 3173
3166 3165 3164 3163 3162 3160 3160 3160 3160 3160 3160 3160 3160 3159 3159 3158 3158 3157 3156 3156 3156 3156 3156 3156 3157 3157 3157 3157 3157 3158 3158 3158 3159 3160 3161 3163 3164 3165 3166 3167 3168 3170
3167 3168 3167 3166 3164 3161 3159 3157 3157 3157 3157 3157 3158 3158 3157 3157 3156 3155 3155 3154 3154 3154 3154 3154 3154 3155 3155 3155 3155 3155 3156 3156 3156 3157 3158 3159 3160 3162 3162 3163 3165 3167
3169 3170 3168 3166 3164 3162 3160 3158 3156 3156 3155 3155 3155 3156 3156 3155 3154 3154 3154 3153 3153 3152 3152 3151 3151 3151 3151 3152 3152 3153 3153 3154 3154 3155 3156 3157 3158 3159 3159 3160 3162 3163
3167 3170 3168 3165 3162 3160 3158 3157 3157 3157 3156 3156 3155 3155 3154 3154 3153 3152 3152 3151 3151 3150 3149 3148 3147 3147 3147 3148 3148 3149 3150 3151 3152 3153 3153 3154 3155 3156 3157 3157 3160 3162
3163 3165 3165 3162 3160 3158 3155 3155 3156 3155 3154 3154 3153 3153 3152 3152 3151 3150 3150 3149 3148 3147 3147 3145 3144 3143 3144 3144 3145 3146 3147 3147 3148 3149 3150 3151 3152 3154 3155 3155 3156 3160
3161 3161 3161 3159 3158 3156 3154 3153 3153 3152 3151 3151 3149 3149 3149 3149 3149 3148 3147 3146 3146 3145 3145 3144 3143 3142 3142 3143 3143 3143 3144 3144 3145 3146 3147 3148 3149 3150 3151 3152 3153 3155
3159 3158 3157 3156 3155 3153 3152 3151 3150 3150 3149 3147 3146 3146 3146 3145 3145 3145 3144 3144 3144 3144 3144 3143 3143 3143 3142 3142 3142 3142 3142 3143 3143 3144 3144 3145 3146 3147 3148 3148 3149 3150
3156 3155 3154 3153 3151 3150 3149 3148 3148 3147 3146 3145 3144 3143 3143 3142 3141 3141 3143 3143 3144 3144 3144 3143 3143 3142 3142 3141 3141 3141 3141 3141 3141 3142 3143 3143 3144 3144 3145 3145 3146 3147
3153 3152 3151 3150 3148 3147 3146 3146 3145 3145 3143 3142 3141 3140 3140 3139 3137 3139 3141 3142 3143 3143 3142 3141 3140 3140 3139 3139 3138 3138 3138 3138 3139 3139 3140 3140 3141 3141 3142 3143 3143 3144
3150 3149 3148 3146 3145 3144 3143 3143 3142 3142 3141 3140 3138 3137 3136 3135 3135 3136 3138 3139 3140 3140 3138 3137 3137 3137 3136 3135 3135 3135 3135 3135 3135 3136 3136 3137 3137 3138 3139 3140 3141 3141
3147 3146 3145 3144 3142 3140 3140 3139 3138 3138 3137 3137 3136 3134 3133 3132 3132 3134 3136 3136 3135 3135 3135 3135 3134 3134 3133 3132 3132 3132 3131 3131 3132 3132 3133 3133 3134 3135 3136 3137 3137 3138
3144 3142 3141 3140 3139 3137 3136 3135 3134 3134 3133 3133 3132 3131 3130 3130 3130 3131 3133 3133 3132 3131 3131 3131 3131 3130 3129 3129 3129 3128 3128 3128 3128 3128 3129 3129 3130 3131 3132 3132 3133 3134
3141 3139 3137 3136 3135 3134 3132 3131 3130 3130 3129 3129 3128 3128 3127 3127 3127 3128 3129 3129 3128 3128 3128 3128 3127 3127 3126 3125 3125 3125 3125 3125 3125 3125 3125 3126 3126 3127 3128 3128 3129 3130
3138 3136 3134 3133 3131 3130 3129 3127 3126 3125 3125 3124 3124 3124 3124 3124 3124 3124 3125 3126 3125 3124 3124 3124 3124 3123 3122 3122 3122 3122 3122 3122 3122 3122 3122 3123 3123 3124 3124 3125 3125 3125
3136 3134 3132 3130 3128 3127 3126 3124 3123 3122 3121 3120 3120 3120 3120 3120 3120 3120 3121 3122 3121 3120 3120 3120 3120 3119 3119 3118 3118 3119 3119 3119 3119 3119 3119 3119 3119 3120 3120 3121 3121 3121
3133 3131 3129 3127 3125 3124 3122 3121 3120 3119 3117 3116 3116 3116 3116 3116 3115 3115 3116 3117 3118 3117 3116 3116 3116 3116 3115 3114 3114 3115 3115 3115 3115 3115 3115 3115 3115 3115 3116 3116 3117 3117
3130 3128 3126 3124 3122 3120 3119 3118 3117 3116 3115 3113 3112 3112 3112 3112 3112 3112 3112 3113 3114 3113 3112 3112 3113 3112 3111 3111 3111 3111 3111 3111 3111 3111 3111 3111 3111 3111 3111 3112 3112 3113
3126 3125 3123 3121 3119 3117 3116 3114 3113 3112 3111 3110 3109 3108 3107 3108 3108 3108 3108 3109 3110 3109 3109 3109 3109 3109 3108 3107 3107 3107 3107 3107 3107 3107 3107 3107 3107 3107 3107 3108 3109 3110
3123 3121 3120 3118 3116 3114 3113 3111 3110 3108 3107 3106 3105 3104 3103 3103 3103 3103 3103 3104 3105 3105 3105 3105 3105 3105 3105 3104 3103 3103 3103 3103 3103 3103 3103 3104 3103 3103 3104 3104 3105 3106